[[{"header":{"parameterUnit":"m.s-1","parameterCategory":1,"la1":30.2991,"la2":30.254,"lo1":-89.0895,"lo2":-89.0444,"dy":0.0017,"dx":0.0017,"nx":28,"ny":28,"refTime":"2024-08-23T09:00:00:Z","depth":0,"parameterNumber":2,"parameterNumberName":"U-component_of_WINDS"},"data":[0,0,0,0,0,0,0,0,0,0,0,0,0,0,0,0,0,0,0,0,0,0,0,0,0,0,0,0,0,0,0,0,0,0,0,0,0,0,0,0,0,0,0,0,0,0,0,0,0,0,0,0,0,0,0,0,0,0,-3.5018,-3.5018,0,-3.5015,-3.5015,-3.5015,-3.4868,-3.4864,-3.486,-3.4857,-3.4856,-3.4859,-3.4863,0,0,0,0,0,0,0,0,0,0,0,0,0,-3.49,-3.4903,-3.5018,-3.5018,-3.5018,-3.5015,-3.5015,-3.5015,-3.4868,-3.4864,-3.4859,-3.4855,-3.4855,-3.4859,-3.4863,0,0,0,0,0,0,0,0,0,0,0,0,0,-3.493,-3.4904,-3.5018,-3.4945,-3.4938,-3.5015,-3.5015,-3.5015,-3.4869,-3.4864,-3.4858,-3.4853,-3.4853,-3.4858,-3.4864,-3.5011,0,0,-3.488,-3.4882,0,0,0,0,0,0,0,0,-3.4928,-3.4934,-3.4956,-3.495,-3.4943,-3.4936,-3.4972,-3.5014,-3.4871,-3.4896,-3.4856,-3.485,-3.4887,-3.4889,-3.4901,-3.5011,-3.5011,-3.488,-3.4884,-3.4886,-3.4887,0,0,0,0,0,0,0,-3.4926,-3.4933,-3.5017,-3.4956,-3.4948,-3.4912,-3.491,-3.498,-3.4924,-3.4893,-3.4882,-3.4884,-3.4883,-3.4897,-3.49,-3.5011,-3.488,-3.4885,-3.4888,-3.489,-3.5242,-3.5247,0,0,0,0,0,0,-3.4934,-3.4933,-3.5017,-3.5017,-3.4921,-3.4919,-3.4917,-3.4944,-3.4923,-3.4914,-3.4889,-3.4877,-3.489,-3.4894,-3.49,-3.5071,-3.4886,-3.4891,-3.4894,-3.5235,-3.5243,-3.525,0,0,0,0,0,0,-3.4932,-3.4943,-3.5017,-3.4972,-3.4978,-3.4927,-3.4959,-3.4947,-3.496,-3.4919,-3.4909,-3.4913,-3.4886,-3.4892,-3.4984,-3.5069,-3.4893,-3.4898,-3.5228,-3.5238,-3.5246,-3.5416,0,0,0,0,0,0,-3.4929,-3.4943,-3.4998,-3.4974,-3.4981,-3.5102,-3.4964,-3.4951,-3.497,-3.4954,-3.4939,-3.4932,-3.4882,-3.4977,-3.499,-3.5073,-3.4902,-3.522,-3.5232,-3.5243,-3.5402,-3.5429,-3.5453,0,0,0,0,0,-3.4926,-3.5047,-3.5002,-3.5013,-3.5049,-3.5107,-3.5111,-3.5051,-3.4977,-3.5033,-3.5006,-3.4932,-3.5058,-3.4988,-3.5001,-3.5087,-3.5215,-3.5229,-3.5242,-3.5391,-3.5424,-3.5452,0,0,0,0,0,0,-3.5083,-3.5042,-3.4992,-3.5109,-3.5113,-3.5082,-3.515,-3.5088,-3.5113,-3.5098,-3.5023,-3.5021,-3.5125,-3.5115,-3.5038,-3.5229,-3.5123,-3.514,-3.5232,-3.5263,-3.5288,-3.5289,-3.4907,0,0,0,0,0,-3.5132,-3.5181,-3.5143,-3.525,-3.5254,-3.5202,-3.5225,-3.5178,-3.5179,-3.518,-3.516,-3.5165,-3.5204,-3.5233,-3.5268,-3.5399,-3.5394,-3.5465,-3.549,-3.5511,-3.5528,-3.5597,-3.5628,-3.5295,-3.5295,-3.5295,0,0,-3.5232,-3.5216,-3.5252,-3.5281,-3.5278,-3.5332,-3.5204,-3.5266,-3.5306,-3.519,-3.5275,-3.5261,-3.5261,-3.5374,-3.5422,-3.5368,-3.5618,-3.5529,-3.5546,-3.5551,-3.5614,-3.5646,-3.5674,-3.5304,-3.5303,-3.5301,0,0,-3.5443,-3.5435,-3.5523,-3.5523,-3.552,-3.5484,-3.5506,-3.5485,-3.547,-3.5555,-3.5469,-3.5514,-3.5585,-3.5589,-3.56,-3.5811,-3.5745,-3.5825,-3.5957,-3.6026,-3.6052,-3.6075,-3.6151,-3.6179,-3.5841,-3.5841,-3.5841,0,-3.5569,-3.5645,-3.5577,-3.5645,-3.566,-3.5556,-3.5645,-3.5648,-3.5658,-3.5671,-3.561,-3.5696,-3.5689,-3.5801,-3.5853,-3.5865,-3.5888,-3.5827,-3.6054,-3.6076,-3.6096,-3.6168,-3.6197,-3.5851,-3.585,-3.5849,-3.5848,0,-3.58,-3.5855,-3.5927,-3.5937,-3.596,-3.6039,-3.5983,-3.6014,-3.5965,-3.5937,-3.6024,-3.6011,-3.6042,-3.6065,-3.6018,-3.6171,-3.6137,-3.6067,-3.5959,-3.6139,-3.6205,-3.6232,-3.5865,-3.5861,-3.5859,-3.5856,0,0,-3.6112,-3.6082,-3.611,-3.6113,-3.6102,-3.6143,-3.6217,-3.6245,-3.6274,-3.6284,-3.6344,-3.6406,-3.634,-3.6353,-3.6305,-3.6365,-3.6534,-3.6287,-3.6285,-3.6334,-3.6703,-3.6757,-3.679,-3.6489,-3.6494,-3.6498,-3.6703,0,-3.6316,-3.644,-3.638,-3.6511,-3.656,-3.6462,-3.6526,-3.6526,-3.6501,-3.654,-3.6512,-3.6558,-3.6467,-3.6474,-3.6529,-3.6502,-3.6608,-3.6487,-3.6546,-3.6549,-3.655,-3.6824,-3.6882,-3.7076,-3.6728,-3.6733,-3.6736,0,-3.6571,-3.6591,-3.6727,-3.6706,-3.6724,-3.6783,-3.6804,-3.6842,-3.6841,-3.6818,-3.6833,-3.6771,-3.6842,-3.6735,-3.6832,-3.6751,-3.6772,-3.6762,-3.6768,-3.6773,-3.6654,-3.6837,-3.7136,-3.7166,-3.6776,-3.6772,-3.677,0,-3.6786,-3.6846,-3.6935,-3.694,-3.6918,-3.6962,-3.6955,-3.6947,-3.6968,-3.6987,-3.7,-3.7027,-3.7043,-3.7066,-3.7013,-3.694,-3.7119,-3.7007,-3.7103,-3.7104,-3.7146,-3.7144,-3.7454,-3.7158,-3.7157,-3.7157,-3.7156,0,-3.7021,-3.7108,-3.7031,-3.7086,-3.718,-3.7111,-3.7207,-3.7189,-3.7183,-3.7233,-3.7149,-3.7198,-3.7125,-3.7168,-3.7127,-3.7214,-3.7222,-3.7206,-3.7195,-3.7215,-3.7217,-3.7228,-3.7214,-3.7164,-3.7163,-3.7161,-3.716,0,-3.7277,-3.7229,-3.7319,-3.729,-3.7285,-3.7356,-3.7331,-3.7381,-3.735,-3.7414,-3.7426,-3.7377,-3.7422,-3.7372,-3.7413,-3.7386,-3.7504,-3.7472,-3.7505,-3.7496,-3.7595,-3.7587,-3.7924,-3.7964,-3.7642,-3.7645,-3.7648,0,-3.7431,-3.7496,-3.7473,-3.75,-3.7498,-3.7543,-3.7563,-3.7497,-3.7522,-3.7525,-3.7575,-3.7613,-3.764,-3.7716,-3.7685,-3.7717,-3.7685,-3.7801,-3.769,-3.7708,-3.7688,-3.7686,-3.7692,-3.7824,-3.7828,-3.7831,-3.7834,0,-3.7709,-3.7682,-3.7714,-3.7739,-3.7766,-3.7782,-3.7792,-3.782,-3.7751,-3.7783,-3.7828,-3.7849,-3.789,-3.7929,-3.7951,-3.7944,-3.7879,-3.7869,-3.7893,-3.7915,-3.7931,-3.7924,-3.7568,-3.7862,-3.7859,-3.7857,-3.7856,-3.7854,-3.7919,-3.7972,-3.7965,-3.8004,-3.8004,-3.8015,-3.8061,-3.8035,-3.807,-3.8098,-3.8057,-3.8113,-3.8109,-3.8132,-3.8133,-3.8176,-3.8127,-3.8162,-3.8171,-3.8181,-3.8196,-3.7923,-3.818,-3.8179,-3.8178,-3.8178,-3.8177,0,-3.8194,-3.8184,-3.822,-3.8237,-3.8268,-3.8201,-3.8209,-3.824,-3.8289,-3.8291,-3.8319,-3.837,-3.8408,-3.8379,-3.841,-3.8451,-3.8421,-3.8461,-3.8458,-3.8458,-3.8238,-3.8214,-3.8484,-3.8484,-3.8484,-3.8484,-3.8484,-3.8484,-3.834,-3.8426,-3.8398,-3.8483,-3.8472,-3.8526,-3.8536,-3.8546,-3.8547,-3.8608,-3.8638,-3.8619,-3.8609,-3.8638,-3.867,-3.866,-3.8676,-3.8728,-3.8708,-3.8503,-3.8473,-3.8444,-3.8422,-3.8731,-3.8732,-3.8924,-3.8926,-3.8927]},{"header":{"parameterUnit":"m.s-1","parameterCategory":1,"la1":30.2991,"la2":30.254,"lo1":-89.0895,"lo2":-89.0444,"dy":0.0017,"dx":0.0017,"nx":28,"ny":28,"refTime":"2024-08-23T09:00:00:Z","depth":0,"parameterNumber":3,"parameterNumberName":"V-component_of_WINDS"},"data":[0,0,0,0,0,0,0,0,0,0,0,0,0,0,0,0,0,0,0,0,0,0,0,0,0,0,0,0,0,0,0,0,0,0,0,0,0,0,0,0,0,0,0,0,0,0,0,0,0,0,0,0,0,0,0,0,0,0,-1.4941,-1.4942,0,-1.5028,-1.5029,-1.503,-1.5102,-1.5103,-1.5104,-1.5104,-1.5193,-1.5194,-1.5196,0,0,0,0,0,0,0,0,0,0,0,0,0,-1.4836,-1.4838,-1.4941,-1.4942,-1.4943,-1.5028,-1.5029,-1.503,-1.5102,-1.5103,-1.5104,-1.5105,-1.5192,-1.5194,-1.5196,0,0,0,0,0,0,0,0,0,0,0,0,0,-1.4898,-1.4838,-1.4941,-1.4989,-1.4995,-1.5028,-1.5029,-1.5031,-1.5102,-1.5103,-1.5104,-1.5105,-1.5192,-1.5194,-1.5197,-1.5189,0,0,-1.5204,-1.5205,0,0,0,0,0,0,0,0,-1.4894,-1.4902,-1.4981,-1.4986,-1.4992,-1.5056,-1.5025,-1.5084,-1.5102,-1.5061,-1.5104,-1.5106,-1.5146,-1.5152,-1.5166,-1.5193,-1.5196,-1.5204,-1.5206,-1.5207,-1.5207,0,0,0,0,0,0,0,-1.489,-1.4899,-1.4976,-1.4982,-1.4989,-1.5006,-1.5016,-1.5036,-1.5096,-1.5065,-1.507,-1.5079,-1.5149,-1.5164,-1.5169,-1.5198,-1.5204,-1.5206,-1.5208,-1.5209,-1.522,-1.5219,0,0,0,0,0,0,-1.4878,-1.4895,-1.4973,-1.4978,-1.4945,-1.5007,-1.5019,-1.5034,-1.5096,-1.5107,-1.5078,-1.5083,-1.5159,-1.5166,-1.5172,-1.5166,-1.5207,-1.5209,-1.521,-1.5222,-1.522,-1.5219,0,0,0,0,0,0,-1.4876,-1.4885,-1.4969,-1.4938,-1.495,-1.5008,-1.5025,-1.5035,-1.5049,-1.5106,-1.5117,-1.5082,-1.516,-1.5169,-1.5184,-1.517,-1.521,-1.5212,-1.5223,-1.5221,-1.522,-1.5153,0,0,0,0,0,0,-1.4873,-1.4883,-1.4881,-1.4937,-1.4951,-1.4979,-1.5024,-1.5036,-1.5054,-1.506,-1.5113,-1.5123,-1.5162,-1.5179,-1.5186,-1.5174,-1.5214,-1.5224,-1.5222,-1.522,-1.5156,-1.5149,-1.5142,0,0,0,0,0,-1.4869,-1.4859,-1.4881,-1.489,-1.495,-1.4978,-1.4987,-1.5032,-1.5052,-1.505,-1.5087,-1.5121,-1.517,-1.518,-1.5188,-1.5177,-1.5225,-1.5223,-1.522,-1.5159,-1.515,-1.5143,0,0,0,0,0,0,-1.48,-1.4868,-1.4892,-1.4901,-1.4933,-1.4991,-1.499,-1.5021,-1.5048,-1.5053,-1.5108,-1.5119,-1.5127,-1.5154,-1.5164,-1.5171,-1.5202,-1.5201,-1.5153,-1.5145,-1.5138,-1.5131,-1.5216,0,0,0,0,0,-1.4786,-1.4804,-1.4862,-1.4864,-1.4879,-1.4931,-1.4945,-1.4977,-1.5013,-1.5027,-1.5065,-1.5098,-1.5121,-1.5135,-1.5159,-1.5161,-1.5173,-1.5157,-1.515,-1.5144,-1.5142,-1.5143,-1.5136,-1.521,-1.521,-1.521,0,0,-1.4758,-1.4797,-1.4805,-1.4851,-1.488,-1.4897,-1.4942,-1.4958,-1.4971,-1.503,-1.5045,-1.5074,-1.5115,-1.5122,-1.5128,-1.5145,-1.5124,-1.5141,-1.5135,-1.5137,-1.5139,-1.5132,-1.5126,-1.5209,-1.5209,-1.5209,0,0,-1.4713,-1.4745,-1.4749,-1.4777,-1.482,-1.4855,-1.4856,-1.4908,-1.4929,-1.4946,-1.499,-1.5006,-1.5045,-1.5071,-1.509,-1.5054,-1.5086,-1.5061,-1.5024,-1.5024,-1.5018,-1.5013,-1.4999,-1.4993,-1.5059,-1.5058,-1.5058,0,-1.4672,-1.4699,-1.4748,-1.476,-1.4779,-1.4833,-1.4837,-1.4862,-1.491,-1.4922,-1.494,-1.4989,-1.502,-1.5034,-1.5025,-1.5039,-1.5041,-1.5054,-1.5015,-1.5011,-1.5007,-1.4994,-1.4988,-1.5055,-1.5055,-1.5056,-1.5056,0,-1.4645,-1.4662,-1.4661,-1.4706,-1.4724,-1.4733,-1.4782,-1.4795,-1.4825,-1.4858,-1.4873,-1.4913,-1.4945,-1.4951,-1.4981,-1.4969,-1.4978,-1.5005,-1.5037,-1.4995,-1.4984,-1.4979,-1.505,-1.5051,-1.5052,-1.5053,0,0,-1.4559,-1.4631,-1.4629,-1.4649,-1.4701,-1.4715,-1.4725,-1.4757,-1.4766,-1.4798,-1.4807,-1.4838,-1.4863,-1.4884,-1.4918,-1.4918,-1.4885,-1.4946,-1.4947,-1.4931,-1.4872,-1.485,-1.4843,-1.4907,-1.4907,-1.4906,-1.4868,0,-1.4522,-1.4543,-1.4587,-1.4594,-1.461,-1.4662,-1.4671,-1.4702,-1.4733,-1.475,-1.4784,-1.4805,-1.4837,-1.485,-1.4853,-1.4888,-1.4874,-1.4892,-1.4915,-1.4915,-1.4902,-1.4838,-1.4815,-1.4777,-1.4864,-1.4863,-1.4863,0,-1.4481,-1.4508,-1.4517,-1.4566,-1.4574,-1.4581,-1.4613,-1.463,-1.4666,-1.4688,-1.4711,-1.4748,-1.476,-1.4791,-1.4808,-1.482,-1.4832,-1.4851,-1.4851,-1.4853,-1.4885,-1.4837,-1.4766,-1.4759,-1.4857,-1.4857,-1.4858,0,-1.4415,-1.4455,-1.4465,-1.4481,-1.4538,-1.4542,-1.4566,-1.4604,-1.4619,-1.4647,-1.4658,-1.4687,-1.4702,-1.4724,-1.4767,-1.4785,-1.4779,-1.4814,-1.4797,-1.4795,-1.4792,-1.4791,-1.472,-1.4802,-1.4803,-1.4803,-1.4803,0,-1.4368,-1.437,-1.4436,-1.4442,-1.4446,-1.4496,-1.4499,-1.4528,-1.4561,-1.4573,-1.4619,-1.4629,-1.4687,-1.4703,-1.4737,-1.4746,-1.4753,-1.477,-1.4779,-1.4765,-1.4762,-1.4773,-1.4776,-1.4801,-1.4802,-1.4802,-1.4802,0,-1.4295,-1.4339,-1.4353,-1.4406,-1.4419,-1.4419,-1.4464,-1.4472,-1.4505,-1.4519,-1.4525,-1.4577,-1.4599,-1.4644,-1.4679,-1.4701,-1.4701,-1.4718,-1.4688,-1.4693,-1.4673,-1.4674,-1.4605,-1.4598,-1.4686,-1.4685,-1.4684,0,-1.4261,-1.4264,-1.4317,-1.4328,-1.435,-1.4367,-1.4383,-1.4433,-1.4447,-1.4489,-1.449,-1.4516,-1.4538,-1.4571,-1.4611,-1.4637,-1.4654,-1.4628,-1.4658,-1.4644,-1.4651,-1.465,-1.465,-1.4621,-1.4619,-1.4619,-1.4618,0,-1.4195,-1.4216,-1.4237,-1.4265,-1.4283,-1.4308,-1.4335,-1.4341,-1.4397,-1.4411,-1.4434,-1.4451,-1.4486,-1.451,-1.4542,-1.4567,-1.4601,-1.4608,-1.4605,-1.459,-1.4572,-1.458,-1.4668,-1.4609,-1.461,-1.4611,-1.4611,-1.4611,-1.4139,-1.4143,-1.4181,-1.4202,-1.4228,-1.4252,-1.4261,-1.4294,-1.4314,-1.4345,-1.4374,-1.4393,-1.4429,-1.4476,-1.4498,-1.4514,-1.4531,-1.4527,-1.4526,-1.4524,-1.4517,-1.4571,-1.452,-1.452,-1.4521,-1.4521,-1.4521,0,-1.4074,-1.41,-1.4119,-1.4156,-1.4172,-1.4203,-1.4235,-1.4246,-1.4263,-1.4293,-1.4314,-1.4339,-1.4363,-1.4405,-1.4431,-1.4436,-1.4452,-1.4441,-1.444,-1.4445,-1.4501,-1.45,-1.4427,-1.4427,-1.4427,-1.4427,-1.4427,-1.4427,-1.4042,-1.405,-1.4075,-1.4097,-1.4123,-1.4142,-1.4157,-1.4179,-1.4204,-1.4229,-1.4249,-1.4276,-1.4311,-1.434,-1.4363,-1.4375,-1.4381,-1.4365,-1.4381,-1.4432,-1.4441,-1.445,-1.4449,-1.4366,-1.4366,-1.4324,-1.4323,-1.4323]}]]